Regional Weather Roundup
Issued by NWS Charleston, SC

Current Version | Previous Version | Graphics & Text | Print | Product List | Glossary On
Versions: 1 2 3 4 5 6 7 8 9 10 11 12 13 14 15 16 17 18 19 20 21 22 23 24 25 26 27 28 29 30 31 32 33 34 35 36 37 38 39 40 41 42 43 44 45 46 47 48 49 50
962
ASUS42 KCHS 170212
RWRCHS

REGIONAL WEATHER ROUNDUP
NATIONAL WEATHER SERVICE CHARLESTON SC
1000 PM EDT MON OCT 16 2017

NOTE: "FAIR" INDICATES FEW OR NO CLOUDS BELOW 12,000 FEET WITH NO
SIGNIFICANT WEATHER AND/OR OBSTRUCTIONS TO VISIBILITY.

NOT ALL STATIONS ARE QUALITY CONTROLLED. USE DATA WITH CAUTION...
ESPECIALLY DEWPOINT OBSERVATIONS.

SCZ027-030-031-034>040-042>050-170300-
...SOUTHEAST SOUTH CAROLINA...

CITY           SKY/WX    TMP DP  RH WIND       PRES   REMARKS
N CHARLESTON   MOCLDY    62  56  80 N14G23    30.12R
WATERFRONT PRK NOT AVBL
JOHNS ISLAND   MOCLDY    63  57  82 N13G20    30.13R
PINOPOLIS        N/A     63  59  88 NE14      30.04R
MONCKS CORNER  FAIR      61  55  82 NE14G20   30.14R
SUMMERVILLE    FAIR      61  55  82 N10       30.15R
BEAUFORT MCAS  CLOUDY    65  58  78 NE20G26   30.12R
BEAUFORT ARPT  CLOUDY    64  57  77 NE28G33   30.11R
HILTON HEAD IS CLOUDY    66  59  77 N25G33    30.10R
WALTERBORO     CLEAR     61  54  77 NE5       30.15R
ALLENDALE      NOT AVBL

...SOUTHERN MIDLANDS AND PEE DEE...

CITY           SKY/WX    TMP DP  RH WIND       PRES   REMARKS
GEORGETOWN     CLOUDY    61  55  82 N14G22    30.14R
KINGSTREE      FAIR      59  55  88 CALM      30.17R
ORANGEBURG     PTCLDY    60  50  69 NE10      30.16R
BARNWELL         N/A     63  52  67 NE9       30.17R
AIKEN          FAIR      55  52  88 NE5       30.22R
MANNING        FOG       59  55  88 MISG      30.16R VSB<1/4
COLUMBIA       CLEAR     61  47  59 N9        30.19R
SUMTER         CLEAR     59  46  62 N13       30.16R
FLORENCE       CLEAR     57  56  96 N7        30.18R
MYRTLE BEACH   CLOUDY    61  54  77 N16G24    30.14R
N MYRTLE BEACH CLOUDY    61  52  72 N15G25    30.12R

$$

GAZ063-065-086>088-099>101-113>116-118-119-134>141-150-170300-
...SOUTHEAST GEORGIA...

CITY           SKY/WX    TMP DP  RH WIND       PRES   REMARKS
SAVANNAH ARPT  CLOUDY    66  57  72 N14G21    30.11R
HUNTER AAF     CLOUDY    65  59  80 N16G22    30.07R
FORT STEWART   CLOUDY    68  63  82 N12G24    30.07R
STATESBORO     PTCLDY    66  50  56 NE8G16    30.13R
SYLVANIA       MOCLDY    65  55  71 NE9       30.14R
CLAXTON        FAIR      68  55  62 N15G25    30.12R

...CSRA...CENTRAL AND FAR SOUTHEAST GEORGIA...

CITY           SKY/WX    TMP DP  RH WIND       PRES   REMARKS
THOMSON        CLEAR     64  48  55 SE10G17   30.23R
AUGUSTA-BUSH   CLEAR     64  54  69 NE9       30.17R
AUGUSTA-DANIEL CLEAR     65  52  62 NE10      30.18R
SWAINSBORO     FAIR      66  59  77 MISG      30.14R
VIDALIA        PTCLDY    68  61  77 NE18G26   30.11R
EASTMAN        CLOUDY    67  47  48 NE6       30.13R
HAZLEHURST     CLOUDY    72  53  51 NE7       30.07R
ALMA           CLOUDY    73  61  65 N10       30.05R
WAYCROSS       CLOUDY    75  60  60 N10       30.04R
JESUP          NOT AVBL
BAXLEY         CLOUDY    72  64  78 NE10G23   30.07R
BRUNSWICK      CLOUDY    73  68  83 NE17      30.03R
SAINT SIMONS   MOCLDY    74  72  93 MISG      30.02R

$$

SCZ027-028-034-036>038-045-046-048>050-GAZ119-141-170300-
...LAKE AND SUPPLEMENTAL COASTAL OBSERVATIONS...

STATION/POSITION TIME  TEMP    WIND        PRES    WAVE   SWELL
                       AIR SEA DIR/SP/G            HT/PER HT/PER/DIR
                 (UTC) (F)     (DEG/KT/KT) (MB)    (FT/S) (FT/S/D)
WINYAH BAY       0045   62      30/ 10     1019.0
LAKE MURRAY      0120   61      30/  3/  7 1021.3
ACE BASIN NERRS  0045   65     360/  5     1018.0
FORT PULASKI     0136   67 80   20/ 19/ 24 1018.9R
SAPELO ISLAND    0100   76      20/  8     1016.0

$$

ANZ835-935-AMZ111-154-330-350-352-354-370-450-454-472-170300-
...C-MAN AND BUOY OBSERVATIONS...

STATION/POSITION TIME  TEMP    WIND        PRES    WAVE   SWELL
                       AIR SEA DIR/SP/G            HT/PER HT/PER/DIR
                 (UTC) (F)     (DEG/KT/KT) (MB)    (FT/S) (FT/S/D)
BUOY 41004       0150   69 81   20/ 27/ 35 1017.3R   8/ 6
BUOY 41008       0150   72 80   30/ 27/ 33 1016.0R   3/ 9   2/ 90/ 9
FOLLY BEACH CMAN 0100   64      10/ 20/ 25 1019.1R
CAPERS NEARSHORE 0108   64 78   30/ 25/ 37 1017.9R
FRIPP NEARSHORE  0108   68      20/ 23/ 29   N/A


STATION/POSITION TIME  TEMP    WIND        PRES    WAVE   SWELL
                       AIR SEA DIR/SP/G            HT/PER HT/PER/DIR
                 (UTC) (F)     (DEG/KT/KT) (MB)    (FT/S) (FT/S/D)
5E ST. MARYS GA  0130      81                N/A     2/ 9
FRYING PAN BUOY  0150   66 78   10/ 29/ 35 1018.1R   8/ 6   2/100/10
BUOY 41025       0150   68 82   10/ 29/ 33 1016.8R   8/ 7   2/200/11
CAPE LOOKOUT NC  0100   62     360/ 26/ 30 1018.3R
BUOY 41002       0150   78 80   CALM  /  2 1014.6R   4/10   3/ 90/10
BUOY 41010       NOT AVBL
ST AUGUSTINE FL  0200   78 83   80/ 13/ 15 1015.8R


$$




USA.gov is the U.S. government's official web portal to all federal, state and local government web resources and services.